Simultaneous Nadir Overpasses (SNOs) Predictions

Prediction of SNOs between GOES-16 and NPP Satellite Orbit:

Table of predicted SNOs for the next 14.0 days since TLE Epoch: 1/29/2022
Index Date Time (GOES-16) GOES-16 Lat,Lon NPP Lat,Lon Distance(km) Time Diff (sec)
1 01/29/2022 18:10:47 0.05, -75.21 0.96, -71.16 462.19 80
2 01/31/2022 06:32:32 -0.05, -75.20 0.22, -76.42 138.97 80
3 02/01/2022 06:11:06 -0.05, -75.20 -0.78, -71.88 378.15 80
4 02/02/2022 18:33:00 0.05, -75.21 -0.39, -77.18 223.62 80
5 02/03/2022 18:16:53 0.05, -75.22 0.61, -72.64 294.25 80
6 02/05/2022 06:38:39 -0.05, -75.23 0.57, -77.90 304.88 80
7 02/06/2022 06:17:13 -0.05, -75.24 -0.49, -73.37 213.38 80
8 02/07/2022 18:39:07 0.05, -75.27 -0.73, -78.66 386.98 80
9 02/08/2022 18:23:00 0.04, -75.28 0.28, -74.12 131.74 80
10 02/10/2022 06:44:46 -0.04, -75.30 0.85, -79.39 466.21 80
11 02/11/2022 06:23:20 -0.04, -75.31 -0.15, -74.85 52.56 80
